CW1196 Weather Reports


Display with metric or nautical units.
time (UTC)temp
F
wind
direction
speed
MPH
gust
MPH
rain 1hr
in
rain 24hr
in
rain mn
in
humidity
%
barometer
mb
20200405105104 64 272 3.0 6.0 0.00 0.00 0.00 41 1015.2
20200405104604 64 272 4.0 6.0 0.00 0.00 0.00 41 1015.1
20200405104105 64 280 4.0 7.0 0.00 0.00 0.00 41 1015.1
20200405103604 64 288 3.0 8.0 0.00 0.00 0.00 41 1015.1
20200405103104 64 283 2.0 5.0 0.00 0.00 0.00 41 1015.0
20200405102604 64 262 2.0 3.0 0.00 0.00 0.00 41 1015.0
20200405102104 64 276 2.0 3.0 0.00 0.00 0.00 42 1014.9
20200405101605 64 273 2.0 3.0 0.00 0.00 0.00 42 1014.8
20200405101104 64 282 2.0 3.0 0.00 0.00 0.00 42 1014.9
20200405100604 64 281 2.0 3.0 0.00 0.00 0.00 42 1014.9
20200405100105 64 273 2.0 3.0 0.00 0.00 0.00 41 1014.8
20200405095604 64 287 1.0 3.0 0.00 0.00 0.00 41 1014.7
20200405095104 65 285 1.0 2.0 0.00 0.00 0.00 41 1014.6
20200405094605 65 261 1.0 3.0 0.00 0.00 0.00 40 1014.6
20200405094104 65 254 1.0 2.0 0.00 0.00 0.00 40 1014.5
20200405093604 65 232 1.0 2.0 0.00 0.00 0.00 40 1014.4
20200405093104 66 232 2.0 5.0 0.00 0.00 0.00 39 1014.3
20200405092605 66 242 1.0 2.0 0.00 0.00 0.00 39 1014.2
20200405092105 66 247 1.0 3.0 0.00 0.00 0.00 38 1014.1
20200405091606 66 262 2.0 6.0 0.00 0.00 0.00 37 1014.0
20200405091104 67 261 3.0 5.0 0.00 0.00 0.00 37 1014.0
20200405090605 67 252 3.0 7.0 0.00 0.00 0.00 36 1013.9
20200405090105 67 263 5.0 9.0 0.00 0.00 0.00 36 1013.9
20200405085605 68 259 5.0 8.0 0.00 0.00 0.00 35 1013.7
20200405085104 68 261 5.0 9.0 0.00 0.00 0.00 35 1013.6
20200405084605 68 270 3.0 7.0 0.00 0.00 0.00 35 1013.5
20200405084104 68 271 6.0 12.0 0.00 0.00 0.00 34 1013.3
20200405083604 68 278 5.0 10.0 0.00 0.00 0.00 34 1013.2
20200405083104 68 288 4.0 7.0 0.00 0.00 0.00 34 1013.1
20200405082604 69 282 5.0 9.0 0.00 0.00 0.00 34 1013.0
20200405082104 69 275 4.0 8.0 0.00 0.00 0.00 33 1012.9
20200405081604 69 286 4.0 7.0 0.00 0.00 0.00 33 1012.8
20200405081104 69 292 3.0 6.0 0.00 0.00 0.00 33 1012.8
20200405080605 69 273 3.0 7.0 0.00 0.00 0.00 32 1012.7
20200405080105 70 280 2.0 6.0 0.00 0.00 0.00 32 1012.5
20200405075604 70 274 3.0 8.0 0.00 0.00 0.00 31 1012.4
20200405075105 70 291 5.0 9.0 0.00 0.00 0.00 30 1012.3
20200405074604 71 270 3.0 6.0 0.00 0.00 0.00 30 1012.2
20200405074105 71 279 2.0 7.0 0.00 0.00 0.00 30 1012.1
20200405073605 72 267 6.0 9.0 0.00 0.00 0.00 28 1012.0
20200405073104 72 289 6.0 9.0 0.00 0.00 0.00 28 1011.9
20200405072604 72 286 7.0 12.0 0.00 0.00 0.00 27 1011.9
20200405072105 73 288 6.0 12.0 0.00 0.00 0.00 27 1011.8
20200405071605 73 280 5.0 9.0 0.00 0.00 0.00 28 1011.7
20200405071105 73 261 5.0 12.0 0.00 0.00 0.00 27 1011.6
20200405070605 73 286 6.0 12.0 0.00 0.00 0.00 27 1011.5
20200405070105 73 270 6.0 13.0 0.00 0.00 0.00 26 1011.5
20200405065605 73 264 8.0 14.0 0.00 0.00 0.00 26 1011.3
20200405065105 73 253 6.0 14.0 0.00 0.00 0.00 27 1011.2
20200405064605 74 306 5.0 16.0 0.00 0.00 0.00 27 1011.1
20200405064105 74 281 6.0 13.0 0.00 0.00 0.00 26 1011.0
20200405063605 74 279 7.0 12.0 0.00 0.00 0.00 26 1011.0
20200405063104 74 286 4.0 10.0 0.00 0.00 0.00 27 1011.0
20200405062605 74 270 6.0 12.0 0.00 0.00 0.00 27 1010.9
20200405062105 74 270 6.0 13.0 0.00 0.00 0.00 26 1010.9
20200405061605 74 272 7.0 12.0 0.00 0.00 0.00 26 1010.8
20200405061104 74 268 6.0 12.0 0.00 0.00 0.00 27 1010.8
20200405060604 74 277 7.0 14.0 0.00 0.00 0.00 26 1010.8
20200405060105 74 275 6.0 12.0 0.00 0.00 0.00 25 1010.8
20200405055605 74 279 7.0 15.0 0.00 0.00 0.00 26 1010.7
20200405055104 74 264 8.0 14.0 0.00 0.00 0.00 26 1010.7
20200405054605 74 256 9.0 20.0 0.00 0.00 0.00 26 1010.7
20200405054104 74 276 8.0 15.0 0.00 0.00 0.00 25 1010.6
20200405053605 75 278 6.0 17.0 0.00 0.00 0.00 26 1010.5
20200405053104 75 266 7.0 12.0 0.00 0.00 0.00 26 1010.5
20200405052604 75 272 6.0 15.0 0.00 0.00 0.00 25 1010.6
20200405052104 75 257 10.0 17.0 0.00 0.00 0.00 25 1010.7
20200405051605 74 282 7.0 16.0 0.00 0.00 0.00 25 1010.7
20200405051105 74 279 6.0 16.0 0.00 0.00 0.00 26 1010.5
20200405050605 75 267 10.0 15.0 0.00 0.00 0.00 25 1010.5
20200405050105 75 268 8.0 16.0 0.00 0.00 0.00 25 1010.5
20200405045604 75 274 10.0 20.0 0.00 0.00 0.00 25 1010.5
20200405045104 76 260 6.0 12.0 0.00 0.00 0.00 27 1010.5
20200405044605 75 269 6.0 15.0 0.00 0.00 0.00 27 1010.6
20200405044104 75 290 5.0 12.0 0.00 0.00 0.00 26 1010.6
20200405043604 75 293 7.0 12.0 0.00 0.00 0.00 26 1010.6
20200405043105 75 295 5.0 13.0 0.00 0.00 0.00 27 1010.7
20200405042605 75 267 9.0 13.0 0.00 0.00 0.00 26 1010.7
20200405042104 75 268 6.0 13.0 0.00 0.00 0.00 26 1010.6
20200405041605 75 296 4.0 13.0 0.00 0.00 0.00 27 1010.7
20200405041112 75 286 7.0 13.0 0.00 0.00 0.00 26 1010.7
20200405040605 75 282 9.0 17.0 0.00 0.00 0.00 26 1010.7
20200405040105 75 280 9.0 15.0 0.00 0.00 0.00 25 1010.8
20200405035605 74 271 7.0 20.0 0.00 0.00 0.00 26 1010.8
20200405035104 74 265 10.0 17.0 0.00 0.00 0.00 24 1010.9
20200405034604 75 285 7.0 13.0 0.00 0.00 0.00 25 1010.8
20200405034104 75 275 8.0 14.0 0.00 0.00 0.00 25 1010.9
20200405033604 75 265 5.0 13.0 0.00 0.00 0.00 27 1010.9
20200405033105 75 283 8.0 13.0 0.00 0.00 0.00 26 1011.1
20200405032604 75 269 7.0 12.0 0.00 0.00 0.00 26 1011.0
20200405032105 74 257 7.0 14.0 0.00 0.00 0.00 25 1011.0
20200405031604 74 262 12.0 20.0 0.00 0.00 0.00 25 1011.2
20200405031104 74 263 10.0 20.0 0.00 0.00 0.00 25 1011.2
20200405030605 74 278 6.0 13.0 0.00 0.00 0.00 27 1011.3
20200405030105 74 277 6.0 13.0 0.00 0.00 0.00 26 1011.3
20200405025605 74 273 6.0 18.0 0.00 0.00 0.00 26 1011.3
20200405025104 74 271 10.0 18.0 0.00 0.00 0.00 25 1011.4
20200405024605 74 290 7.0 14.0 0.00 0.00 0.00 26 1011.4
20200405024104 74 258 5.0 18.0 0.00 0.00 0.00 26 1011.5
20200405023605 74 268 9.0 17.0 0.00 0.00 0.00 27 1011.6
20200405023104 74 293 7.0 17.0 0.00 0.00 0.00 25 1011.6
20200405022605 74 284 7.0 13.0 0.00 0.00 0.00 28 1011.6
20200405022105 74 306 7.0 13.0 0.00 0.00 0.00 27 1011.6
20200405021605 74 262 6.0 12.0 0.00 0.00 0.00 27 1011.7
20200405021105 73 299 7.0 15.0 0.00 0.00 0.00 27 1011.7
20200405020605 73 268 7.0 14.0 0.00 0.00 0.00 27 1011.8
20200405020106 73 333 10.0 17.0 0.00 0.00 0.00 27 1011.8
20200405015604 72 290 9.0 20.0 0.00 0.00 0.00 27 1012.0
20200405015105 73 257 10.0 16.0 0.00 0.00 0.00 27 1011.9
20200405014605 73 272 6.0 15.0 0.00 0.00 0.00 28 1012.0
20200405014105 73 284 6.0 17.0 0.00 0.00 0.00 29 1012.1
20200405013605 72 302 10.0 16.0 0.00 0.00 0.00 29 1012.2
20200405013105 72 295 9.0 14.0 0.00 0.00 0.00 29 1012.2
20200405012605 72 303 5.0 12.0 0.00 0.00 0.00 29 1012.2
20200405012104 72 300 7.0 14.0 0.00 0.01 0.00 30 1012.4
20200405011605 72 254 4.0 13.0 0.00 0.01 0.00 31 1012.5
20200405011104 72 289 5.0 8.0 0.00 0.01 0.00 30 1012.6
20200405010605 71 252 7.0 16.0 0.00 0.01 0.00 30 1012.6
20200405010105 71 257 10.0 17.0 0.00 0.01 0.00 30 1012.7
20200405005604 71 289 5.0 12.0 0.00 0.01 0.00 31 1012.7
20200405005105 71 267 6.0 12.0 0.00 0.01 0.00 33 1012.8
20200405004605 70 328 3.0 12.0 0.00 0.01 0.00 33 1012.8
20200405004105 70 251 5.0 12.0 0.00 0.01 0.00 34 1012.9
20200405003605 69 261 6.0 10.0 0.00 0.01 0.00 34 1013.0
20200405003104 70 246 6.0 10.0 0.00 0.01 0.00 33 1013.0
20200405002605 69 268 8.0 12.0 0.00 0.01 0.00 33 1013.1
20200405002105 70 252 6.0 12.0 0.00 0.01 0.00 34 1013.1
20200405001605 69 260 2.0 6.0 0.00 0.01 0.00 34 1013.2
20200405001105 69 256 6.0 10.0 0.00 0.01 0.00 36 1013.3
20200405000604 69 277 3.0 9.0 0.00 0.01 0.00 37 1013.2
20200405000106 68 310 3.0 12.0 0.00 0.01 0.00 37 1013.2
20200404235605 68 263 8.0 14.0 0.00 0.01 0.00 37 1013.3
20200404235105 67 285 6.0 12.0 0.00 0.01 0.00 38 1013.4
20200404234605 67 276 6.0 9.0 0.00 0.01 0.00 38 1013.5
20200404234105 67 278 7.0 14.0 0.00 0.01 0.00 38 1013.5
20200404233605 67 281 7.0 12.0 0.00 0.01 0.00 39 1013.5
20200404233105 67 281 5.0 14.0 0.00 0.01 0.00 38 1013.5
20200404232605 67 261 5.0 7.0 0.00 0.01 0.00 36 1013.4
20200404232105 67 265 3.0 9.0 0.00 0.01 0.00 39 1013.5
20200404231604 67 299 7.0 12.0 0.00 0.01 0.00 37 1013.6
20200404231104 67 273 4.0 12.0 0.00 0.01 0.00 39 1013.6
20200404230605 67 285 5.0 10.0 0.00 0.01 0.00 39 1013.6
20200404230105 66 299 6.0 14.0 0.00 0.01 0.00 40 1013.7
20200404225604 66 294 6.0 12.0 0.00 0.01 0.01 39 1013.7
20200404225105 66 302 3.0 8.0 0.00 0.01 0.01 41 1013.7
20200404224605 66 294 5.0 12.0 0.00 0.01 0.01 41 1013.7
20200404224105 65 301 3.0 10.0 0.00 0.01 0.01 42 1013.7
20200404223605 65 302 4.0 12.0 0.00 0.01 0.01 42 1013.7
20200404223104 65 297 5.0 12.0 0.00 0.01 0.01 42 1013.7
20200404222604 65 303 5.0 9.0 0.00 0.01 0.01 43 1013.7
20200404222105 64 311 5.0 10.0 0.00 0.01 0.01 44 1013.6
20200404221605 64 293 6.0 9.0 0.00 0.01 0.01 43 1013.6
20200404221105 64 298 3.0 7.0 0.00 0.01 0.01 45 1013.6
20200404220605 63 319 4.0 9.0 0.00 0.01 0.01 46 1013.6
20200404220106 63 299 6.0 9.0 0.00 0.01 0.01 45 1013.6
20200404215605 62 306 6.0 12.0 0.00 0.01 0.01 46 1013.6
20200404215104 62 298 6.0 9.0 0.00 0.01 0.01 47 1013.5
20200404214605 61 313 5.0 9.0 0.00 0.01 0.01 48 1013.4
20200404214105 61 306 5.0 10.0 0.00 0.01 0.01 49 1013.3
20200404213604 60 314 3.0 7.0 0.00 0.01 0.01 50 1013.3
20200404213105 60 315 3.0 8.0 0.00 0.01 0.01 51 1013.3
20200404212605 59 337 3.0 7.0 0.00 0.01 0.01 52 1013.2
20200404212105 59 328 2.0 6.0 0.00 0.01 0.01 54 1013.1
20200404211605 58 346 3.0 6.0 0.00 0.01 0.01 55 1013.1
20200404211105 58 327 3.0 7.0 0.00 0.01 0.01 56 1013.1
20200404210604 57 310 2.0 5.0 0.00 0.01 0.01 57 1013.1
20200404210106 57 324 2.0 5.0 0.00 0.01 0.01 57 1013.1
20200404205604 56 316 2.0 3.0 0.00 0.01 0.01 59 1013.0
20200404205105 55 302 3.0 5.0 0.00 0.01 0.01 61 1013.0
20200404204605 54 296 1.0 3.0 0.00 0.01 0.01 64 1013.0
20200404204105 53 290 2.0 3.0 0.00 0.01 0.01 66 1013.0
20200404203605 52 286 1.0 3.0 0.00 0.01 0.01 67 1012.9
20200404203105 51 257 1.0 3.0 0.00 0.02 0.01 66 1012.9
20200404202606 52 237 1.0 3.0 0.00 0.02 0.01 66 1012.8
20200404202105 52 181 1.0 2.0 0.00 0.03 0.01 66 1012.8
20200404201605 52 127 1.0 2.0 0.00 0.03 0.01 65 1012.8
20200404201105 53 94 1.0 3.0 0.00 0.04 0.01 64 1012.7
20200404200605 53 158 1.0 2.0 0.00 0.05 0.01 63 1012.6
20200404200106 53 205 1.0 2.0 0.00 0.06 0.01 63 1012.4
20200404195605 53 338 1.0 3.0 0.00 0.09 0.01 63 1012.2
20200404195104 53 274 2.0 3.0 0.00 0.09 0.01 64 1012.2
20200404194605 52 272 1.0 3.0 0.00 0.11 0.01 66 1012.1
20200404194105 51 270 1.0 2.0 0.00 0.13 0.01 70 1012.1
20200404193605 51 227 1.0 2.0 0.00 0.14 0.01 69 1012.1
20200404193105 51 302 0.0 1.0 0.00 0.16 0.01 70 1012.1
20200404192605 51 304 0.0 1.0 0.00 0.17 0.01 70 1011.9
20200404192105 51 304 0.0 0.0 0.00 0.17 0.01 69 1011.8
20200404191605 51 304 0.0 0.0 0.00 0.17 0.01 70 1011.7
20200404191105 51 303 0.0 2.0 0.00 0.17 0.01 70 1011.7
20200404190605 51 248 0.0 1.0 0.00 0.17 0.01 69 1011.7
20200404190106 51 248 1.0 2.0 0.00 0.17 0.01 68 1011.5
20200404185605 51 184 1.0 1.0 0.00 0.17 0.01 68 1011.4
20200404185105 52 108 1.0 1.0 0.00 0.17 0.01 68 1011.3
20200404184605 52 49 0.0 1.0 0.00 0.17 0.01 69 1011.3
20200404184105 52 348 0.0 0.0 0.00 0.17 0.01 69 1011.2
20200404183605 51 349 1.0 2.0 0.00 0.17 0.01 68 1011.1
20200404183105 51 256 1.0 1.0 0.00 0.17 0.01 68 1011.1
20200404182605 51 297 0.0 1.0 0.00 0.17 0.01 68 1011.1
20200404182105 51 298 1.0 1.0 0.00 0.17 0.01 68 1011.1
20200404181604 52 324 0.0 1.0 0.00 0.17 0.01 67 1011.1
20200404181106 52 299 1.0 1.0 0.00 0.17 0.01 67 1011.0
20200404180605 52 235 1.0 2.0 0.00 0.17 0.01 67 1011.0
20200404180106 52 139 0.0 1.0 0.00 0.17 0.01 67 1010.9
20200404175605 52 189 1.0 2.0 0.00 0.17 0.01 67 1011.0
20200404175106 52 183 1.0 2.0 0.00 0.17 0.01 67 1011.1
20200404174605 52 196 2.0 3.0 0.00 0.17 0.01 67 1011.1
20200404174105 52 199 1.0 2.0 0.00 0.17 0.01 67 1011.0
20200404173604 52 227 0.0 1.0 0.00 0.17 0.01 67 1011.0
20200404173105 52 227 1.0 2.0 0.00 0.17 0.01 66 1010.9
20200404172605 52 213 2.0 2.0 0.00 0.17 0.01 67 1010.8
20200404172105 53 229 1.0 2.0 0.00 0.17 0.01 67 1010.7
20200404171605 53 186 0.0 1.0 0.00 0.17 0.01 67 1010.8
20200404171105 53 186 1.0 3.0 0.00 0.17 0.01 65 1010.6
20200404170604 54 216 0.0 3.0 0.00 0.17 0.01 65 1010.6
20200404170105 54 208 0.0 1.0 0.00 0.17 0.01 64 1010.5
20200404165604 54 213 1.0 2.0 0.00 0.17 0.01 64 1010.5
20200404165105 54 135 1.0 2.0 0.00 0.17 0.01 64 1010.4
20200404164605 54 182 1.0 3.0 0.00 0.17 0.01 63 1010.4
20200404164105 55 216 2.0 3.0 0.00 0.17 0.01 61 1010.3
20200404163606 55 230 2.0 5.0 0.00 0.17 0.01 60 1010.4
20200404163104 56 82 0.0 0.0 0.00 0.17 0.01 57 1010.3
20200404162606 55 191 0.0 0.0 0.00 0.17 0.01 60 1010.3
20200404162105 55 189 0.0 0.0 0.00 0.17 0.01 60 1010.4
20200404161605 55 156 0.0 0.0 0.00 0.17 0.01 61 1010.4
20200404161105 55 111 0.0 0.0 0.00 0.17 0.01 61 1010.4
20200404160605 56 132 0.0 0.0 0.00 0.17 0.01 59 1010.3
20200404160106 56 135 0.0 0.0 0.00 0.17 0.01 58 1010.4
20200404155605 57 228 0.0 0.0 0.00 0.17 0.01 57 1010.3
20200404155104 57 228 0.0 0.0 0.00 0.17 0.01 56 1010.3
20200404154605 57 228 0.0 0.0 0.00 0.17 0.01 55 1010.3
20200404154105 57 228 0.0 0.0 0.00 0.17 0.01 55 1010.3
20200404153605 57 228 0.0 0.0 0.00 0.17 0.01 55 1010.2
20200404153105 57 329 0.0 0.0 0.00 0.17 0.01 55 1010.2
20200404152605 57 329 0.0 0.0 0.00 0.17 0.01 55 1010.2
20200404152104 57 329 0.0 0.0 0.00 0.17 0.01 55 1010.0
20200404151605 58 76 0.0 0.0 0.00 0.17 0.01 56 1010.1
20200404151106 58 76 0.0 0.0 0.00 0.17 0.01 55 1010.0
20200404150605 59 76 0.0 1.0 0.00 0.17 0.01 54 1009.9
20200404150105 59 70 0.0 1.0 0.00 0.17 0.01 51 1010.0
20200404145605 60 310 0.0 1.0 0.00 0.17 0.01 49 1009.9
20200404145105 60 1 1.0 3.0 0.00 0.17 0.01 48 1009.9
20200404144604 60 9 1.0 2.0 0.00 0.17 0.01 48 1009.9
20200404144105 61 323 2.0 3.0 0.00 0.17 0.01 47 1009.9
20200404143605 61 310 2.0 3.0 0.00 0.17 0.01 47 1009.8
20200404143105 61 304 2.0 3.0 0.00 0.17 0.01 46 1009.8
20200404142605 61 322 1.0 3.0 0.00 0.17 0.01 47 1009.8
20200404142105 61 311 1.0 3.0 0.00 0.17 0.01 47 1009.7
20200404141605 60 310 2.0 3.0 0.00 0.17 0.01 48 1009.8
20200404141105 60 324 2.0 3.0 0.00 0.17 0.01 48 1009.7
20200404140605 60 323 1.0 2.0 0.00 0.17 0.01 50 1009.7
20200404140106 60 317 2.0 3.0 0.00 0.17 0.01 50 1009.6
20200404135605 60 310 0.0 2.0 0.00 0.17 0.01 50 1009.6
20200404135105 60 299 2.0 3.0 0.00 0.17 0.01 49 1009.5
20200404134604 60 309 2.0 3.0 0.00 0.17 0.01 50 1009.5
20200404134105 59 297 1.0 1.0 0.00 0.17 0.01 51 1009.5
20200404133605 60 345 1.0 2.0 0.00 0.17 0.01 51 1009.5
20200404133105 60 121 0.0 1.0 0.00 0.17 0.01 49 1009.4
20200404132605 60 121 0.0 1.0 0.00 0.17 0.01 51 1009.5
20200404132105 60 121 0.0 1.0 0.00 0.17 0.01 51 1009.4
20200404131604 60 147 0.0 0.0 0.00 0.17 0.01 50 1009.4
20200404131105 60 147 1.0 1.0 0.00 0.17 0.01 50 1009.4
20200404130605 60 156 1.0 1.0 0.00 0.17 0.01 48 1009.4
20200404130106 60 156 1.0 2.0 0.00 0.17 0.01 49 1009.4
20200404125605 61 123 0.0 1.0 0.00 0.17 0.01 49 1009.4
20200404125105 61 123 1.0 1.0 0.00 0.17 0.01 47 1009.3
20200404124605 61 113 0.0 1.0 0.00 0.17 0.01 48 1009.2
20200404124106 61 113 1.0 1.0 0.00 0.17 0.01 48 1009.2
20200404123604 62 157 1.0 1.0 0.00 0.17 0.01 47 1009.1
20200404123103 62 279 0.0 1.0 0.00 0.17 0.01 46 1009.0
20200404122604 63 280 0.0 1.0 0.00 0.17 0.01 45 1009.0
20200404122104 63 280 0.0 1.0 0.00 0.17 0.01 43 1008.9
20200404121604 63 278 1.0 1.0 0.00 0.17 0.01 42 1008.8
20200404121103 64 280 1.0 3.0 0.00 0.17 0.01 41 1008.7
20200404120604 64 282 2.0 5.0 0.00 0.17 0.01 41 1008.8
20200404120104 64 281 3.0 5.0 0.00 0.17 0.01 42 1008.7
20200404115605 64 270 3.0 7.0 0.00 0.17 0.01 42 1008.6
20200404115104 64 273 2.0 3.0 0.00 0.17 0.01 42 1008.7
20200404114604 64 279 2.0 3.0 0.00 0.17 0.01 42 1008.6
20200404114104 64 285 2.0 5.0 0.00 0.17 0.01 42 1008.6
20200404113604 64 272 3.0 6.0 0.00 0.17 0.01 42 1008.6
20200404113104 64 268 2.0 5.0 0.00 0.17 0.01 42 1008.5
20200404112604 64 269 3.0 7.0 0.00 0.17 0.01 42 1008.4
20200404112104 64 259 3.0 5.0 0.00 0.17 0.01 41 1008.4
20200404111604 65 240 2.0 3.0 0.00 0.17 0.01 40 1008.3
20200404111104 65 261 2.0 5.0 0.00 0.17 0.01 40 1008.3
20200404110604 65 281 3.0 8.0 0.00 0.17 0.01 39 1008.1
20200404110105 66 304 2.0 7.0 0.00 0.17 0.01 39 1007.9
20200404105604 66 294 5.0 10.0 0.00 0.17 0.01 38 1007.9